Location: Black Swamp Observatory
(41.3920°N, 84.1250°W)
Time: 18:53:28
(UTC-05:00)

Courier 1B Rocket - All Passes

Search period start: 22 January 2022 00:00
Search period end: 01 February 2022 00:00
Orbit: 920 x 1202 km, 28.2° (Epoch: 22 January)

Date Brightness Start Highest point End Pass type
(mag) Time Alt. Az. Time Alt. Az. Time Alt. Az.
22 Jan - 02:54:29 10° SSW 02:59:21 20° SSE 03:04:01 10° ESE visible
22 Jan - 04:46:32 10° SW 04:51:58 26° S 04:57:09 10° SE visible
22 Jan - 06:39:54 10° WSW 06:44:29 20° SSW 06:48:55 10° SSE visible
23 Jan - 01:54:11 10° SSW 01:58:32 17° SSE 02:02:42 10° SE night (unlit)
23 Jan - 03:45:34 10° SW 03:51:08 25° S 03:56:25 10° ESE visible
23 Jan - 05:38:35 10° WSW 05:43:44 23° S 05:48:39 10° SE visible
23 Jan - 07:33:31 10° SW 07:36:05 12° SSW 07:38:36 10° S daylight
24 Jan - 00:54:24 10° S 00:57:40 13° SSE 01:00:52 10° SE night (unlit)
24 Jan - 02:44:44 10° SW 02:50:17 24° S 02:55:32 10° ESE night (unlit)
24 Jan - 04:37:23 10° WSW 04:42:56 26° S 04:48:12 10° SE visible
24 Jan - 06:31:23 10° WSW 06:35:24 17° SSW 06:39:17 10° SSE visible
25 Jan - 01:44:05 10° SSW 01:49:23 21° SSE 01:54:28 10° ESE night (unlit)
25 Jan - 03:36:16 10° SW 03:42:05 27° S 03:47:35 10° SE visible
25 Jan - 05:29:47 10° WSW 05:34:40 21° SSW 05:39:21 10° SSE visible
26 Jan - 00:43:41 10° SSW 00:48:30 18° SSE 00:53:08 10° ESE night (unlit)
26 Jan - 02:35:15 10° SW 02:41:11 27° S 02:46:49 10° ESE night (unlit)
26 Jan - 04:28:22 10° WSW 04:33:52 25° S 04:39:05 10° SE visible
26 Jan - 06:23:22 10° SW 06:26:16 13° SSW 06:29:05 10° S visible
26 Jan - 23:43:48 10° S 23:47:36 14° SSE 23:51:20 10° SE night (unlit)
27 Jan - 01:34:21 10° SW 01:40:16 25° S 01:45:55 10° ESE night (unlit)
27 Jan - 03:27:06 10° WSW 03:33:01 27° S 03:38:36 10° SE visible
27 Jan - 05:21:11 10° WSW 05:25:33 18° SSW 05:29:44 10° SSE visible
27 Jan - 22:45:22 10° SSE 22:46:43 10° SSE 22:48:05 10° SE night (unlit)
28 Jan - 00:33:39 10° SW 00:39:19 23° SSE 00:44:48 10° ESE night (unlit)
28 Jan - 02:25:55 10° SW 02:32:07 28° S 02:37:58 10° SE night (unlit)
28 Jan - 04:19:31 10° WSW 04:24:46 22° SSW 04:29:46 10° SSE visible
28 Jan - 23:33:15 10° SSW 23:38:23 19° SSE 23:43:24 10° ESE night (unlit)
29 Jan - 01:24:53 10° SW 01:31:09 28° S 01:37:08 10° ESE night (unlit)
29 Jan - 03:18:03 10° WSW 03:23:55 26° S 03:29:28 10° SE visible
29 Jan - 05:13:02 10° SW 05:16:22 14° SSW 05:19:36 10° S visible
29 Jan - 22:33:19 10° S 22:37:28 15° SSE 22:41:35 10° SE night (unlit)
30 Jan - 00:23:58 10° SW 00:30:10 27° S 00:36:09 10° ESE night (unlit)
30 Jan - 02:16:45 10° WSW 02:23:00 28° S 02:28:56 10° SE night (unlit)
30 Jan - 04:10:52 10° WSW 04:15:36 19° SSW 04:20:09 10° SSE visible
30 Jan - 21:34:37 10° SSE 21:36:35 11° SSE 21:38:33 10° SE visible
30 Jan - 23:23:17 10° SW 23:29:11 24° SSE 23:34:57 10° ESE night (unlit)
31 Jan - 01:15:34 10° WSW 01:22:01 30° S 01:28:13 10° ESE night (unlit)
31 Jan - 03:09:10 10° WSW 03:14:46 23° SSW 03:20:07 10° SE night (unlit)
31 Jan - 22:22:54 10° SSW 22:28:13 20° SSE 22:33:29 10° ESE night (unlit)
